Regional Weather Roundup
Issued by NWS

Home | Current Version | Previous Version | Graphics & Text | Print | Product List | Glossary On
Versions: 1 2 3 4 5 6 7 8 9 10 11 12 13 14 15 16 17 18 19 20 21 22 23 24 25 26 27 28 29 30 31 32 33 34 35 36 37 38 39 40 41 42 43 44 45 46 47 48 49 50
853
ASUS43 KFSD 200810
RWRSD

WEATHER ROUNDUP FOR SOUTH DAKOTA
NATIONAL WEATHER SERVICE SIOUX FALLS SD
200 AM CST TUE FEB 20 2018

NOTE: "FAIR" INDICATES FEW OR NO CLOUDS BELOW 12,000 FEET WITH NO
SIGNIFICANT WEATHER AND/OR OBSTRUCTIONS TO VISIBILITY.


SDZ001>005-009-010-012>017-200900-
NORTHWEST AND NORTH CENTRAL SOUTH DAKOTA

CITY           SKY/WX    TMP DP  RH WIND       PRES   REMARKS
BUFFALO          N/A      0  -5  79 NW6       29.95R WCI -12
FAITH            N/A      0  -3  87 NW12      30.05R WCI -17
MOBRIDGE       CLOUDY     4  -2  76 MISG      30.01F
$$

SDZ012>016-024>037-041>051-057-063-072>074-200900-
SOUTHWEST AND SOUTH CENTRAL SOUTH DAKOTA

CITY           SKY/WX    TMP DP  RH WIND       PRES   REMARKS
RAPID CTY ARPT LGT SNOW  -1  -6  79 N13       29.98S WCI -19
PIERRE         LGT SNOW   3   0  87 N15       30.03F FOG     WCI -16
CUSTER         LGT SNOW  -5 -10  79 SW3       29.69F
ELLSWORTH AFB  LGT SNOW  -1  -5  84 N13       29.96F FOG     WCI -19
PHILIP         CLOUDY     2  -2  83 N13       30.03F WCI -15
PINE RIDGE     CLOUDY     0  -5  79 NW8       29.97R WCI -14
SPEARFISH      LGT SNOW  -4  -9  77 NW6       29.93S WCI -16
WINNER         LGT SNOW   4  -1  80 N16       29.98F WCI -15
$$

SDZ004>011-016>023-039-040-200900-
NORTHEAST SOUTH DAKOTA

CITY           SKY/WX    TMP DP  RH WIND       PRES   REMARKS
ABERDEEN       LGT SNOW   4   0  83 N18       30.02F FOG     WCI -16
WATERTOWN      CLOUDY     4   1  88 N16       29.88F FOG     WCI -15
BROOKINGS      LGT SNOW   6   3  87 N15       29.85F VSB 1   WCI -12
SISSETON         N/A      5   2  87 NW16      29.98F WCI -14
$$

SDZ017-020-022-023-036>040-048>070-200900-
SOUTHEAST SOUTH DAKOTA

CITY           SKY/WX    TMP DP  RH WIND       PRES   REMARKS
SIOUX FALLS    LGT SNOW  11   8  88 N10       29.88S VSB 1   WCI  -3
HURON          LGT SNOW   4   1  88 N15       30.01R FOG     WCI -14
CHAMBERLAIN    CLOUDY     6   2  86 NW14      29.99F WCI -12
MITCHELL       SNOW       6   3  87 NW15      30.00R VSB 1/2 WCI -12
YANKTON        LGT SNOW  12   8  84 NW16      29.95R FOG     WCI  -5
$$

ABBREVIATIONS USED IN REMARKS
   TC - TEMPERATURE IN CELSIUS
  WCI - WIND CHILL INDEX
   HX - HEAT INDEX
  VSB - VISIBILITY





USA.gov is the U.S. government's official web portal to all federal, state and local government web resources and services.